NORTHEAST SUFFOLK  -  Frost Advisory Frost Advisory        NORTHWEST SUFFOLK  -  Frost Advisory Frost Advisory        SOUTHEAST SUFFOLK  -  Frost Advisory Frost Advisory        SOUTHWEST SUFFOLK  -  Frost Advisory Frost Advisory      

Active alerts

Northwest Suffolk
  Details for Northwest Suffolk Frost Advisory
Southwest Suffolk
  Details for Southwest Suffolk Frost Advisory
Northeast Suffolk
  Details for Northeast Suffolk Frost Advisory
Southeast Suffolk
  Details for Southeast Suffolk Frost Advisory


WXM80 ListenWXM80 Stop

You find our weather info also at:

UK Metoffice

WeatherCloud

Weather Underground

Northeastern Weather Network

AWEKAS

Citizen Weather Observer Program (CWOP)

HAMweather, WeatherForYou, PWS Weather


Weather Underground History page Text

Daily Summary for September 24, 2017 Units:  Both    English   Metric
« Previous Day
Next Day »
Daily Weekly Monthly Yearly Custom
  High: Low: Average:
Temperature: 90.9 °F /  32.7 °C 62.6 °F /  17 °C 74.3 °F /  23.5 °C
Dew Point: 71.2 °F /  21.8 °C 60.7 °F /  15.9 °C 65 °F /  18.3 °C
Humidity: 97 % 47 % 75 %
Wind Speed: 3.9 mph /  6.3 km/h - 0.3 mph /  0.5 km/h
Wind Gust: 5.8 mph /  9.3 km/h - -
Wind:- - SSE
Pressure: 30.01 in /  1016.1 hPa 29.93 in /  1013.4 hPa -
Precipitation: 0.00 in /  0 mm    
Historical Graphs
 
 
Tabular Data for September 24, 2017
Time Temperature Dew Point Pressure Wind Wind Speed Wind Gust Humidity Rainfall Rate (Hourly)
00:01 66.0 °F /  18.9 °C 61.7 °F /  16.5 °C 29.97 in /  1014.8 hPa Calm     86 % 0.00 in /  0 mm
00:06 66.0 °F /  18.9 °C 62.0 °F /  16.7 °C 29.97 in /  1014.8 hPa Calm     87 % 0.00 in /  0 mm
00:11 66.1 °F /  18.9 °C 62.4 °F /  16.9 °C 29.97 in /  1014.8 hPa Calm   1.0 mph /  1.6 km/h 88 % 0.00 in /  0 mm
00:16 66.1 °F /  18.9 °C 62.8 °F /  17.1 °C 29.97 in /  1014.8 hPa Calm   1.0 mph /  1.6 km/h 89 % 0.00 in /  0 mm
00:20 66.1 °F /  18.9 °C 62.8 °F /  17.1 °C 29.97 in /  1014.8 hPa Calm     89 % 0.00 in /  0 mm
00:26 66.0 °F /  18.9 °C 62.3 °F /  16.8 °C 29.97 in /  1014.8 hPa Calm     88 % 0.00 in /  0 mm
00:30 66.0 °F /  18.9 °C 62.3 °F /  16.8 °C 29.97 in /  1014.8 hPa Calm     88 % 0.00 in /  0 mm
00:35 65.9 °F /  18.8 °C 62.2 °F /  16.8 °C 29.97 in /  1014.8 hPa Calm     88 % 0.00 in /  0 mm
00:40 65.9 °F /  18.8 °C 62.2 °F /  16.8 °C 29.97 in /  1014.8 hPa Calm     88 % 0.00 in /  0 mm
00:45 65.8 °F /  18.8 °C 62.1 °F /  16.7 °C 29.97 in /  1014.8 hPa Calm     88 % 0.00 in /  0 mm
00:50 65.8 °F /  18.8 °C 62.1 °F /  16.7 °C 29.97 in /  1014.8 hPa Calm     88 % 0.00 in /  0 mm
00:55 65.7 °F /  18.7 °C 62.0 °F /  16.7 °C 29.97 in /  1014.8 hPa Calm     88 % 0.00 in /  0 mm
01:00 65.6 °F /  18.7 °C 61.9 °F /  16.6 °C 29.97 in /  1014.8 hPa Calm     88 % 0.00 in /  0 mm
01:05 65.5 °F /  18.6 °C 61.9 °F /  16.6 °C 29.97 in /  1014.8 hPa Calm     88 % 0.00 in /  0 mm
01:10 65.4 °F /  18.6 °C 61.8 °F /  16.6 °C 29.97 in /  1014.8 hPa Calm     88 % 0.00 in /  0 mm
01:15 65.3 °F /  18.5 °C 62.0 °F /  16.7 °C 29.97 in /  1014.8 hPa Calm     89 % 0.00 in /  0 mm
01:20 65.2 °F /  18.4 °C 61.9 °F /  16.6 °C 29.97 in /  1014.8 hPa Calm     89 % 0.00 in /  0 mm
01:25 65.2 °F /  18.4 °C 61.9 °F /  16.6 °C 29.97 in /  1014.8 hPa Calm     89 % 0.00 in /  0 mm
01:30 65.0 °F /  18.3 °C 61.7 °F /  16.5 °C 29.97 in /  1014.8 hPa Calm     89 % 0.00 in /  0 mm
01:35 65.0 °F /  18.3 °C 61.7 °F /  16.5 °C 29.97 in /  1014.8 hPa Calm     89 % 0.00 in /  0 mm
01:40 64.9 °F /  18.3 °C 61.6 °F /  16.4 °C 29.97 in /  1014.8 hPa Calm     89 % 0.00 in /  0 mm
01:46 64.8 °F /  18.2 °C 61.8 °F /  16.6 °C 29.96 in /  1014.4 hPa Calm     90 % 0.00 in /  0 mm
01:51 64.8 °F /  18.2 °C 61.8 °F /  16.6 °C 29.97 in /  1014.8 hPa Calm     90 % 0.00 in /  0 mm
01:56 64.7 °F /  18.2 °C 61.7 °F /  16.5 °C 29.96 in /  1014.4 hPa Calm     90 % 0.00 in /  0 mm
02:01 64.6 °F /  18.1 °C 61.9 °F /  16.6 °C 29.97 in /  1014.8 hPa Calm     91 % 0.00 in /  0 mm
02:06 64.6 °F /  18.1 °C 61.9 °F /  16.6 °C 29.97 in /  1014.8 hPa Calm     91 % 0.00 in /  0 mm
02:11 64.5 °F /  18.1 °C 61.8 °F /  16.6 °C 29.97 in /  1014.8 hPa Calm     91 % 0.00 in /  0 mm
02:16 64.5 °F /  18.1 °C 61.8 °F /  16.6 °C 29.96 in /  1014.4 hPa Calm     91 % 0.00 in /  0 mm
02:21 64.4 °F /  18 °C 62.0 °F /  16.7 °C 29.97 in /  1014.8 hPa Calm   1.2 mph /  1.9 km/h 92 % 0.00 in /  0 mm
02:26 64.4 °F /  18 °C 62.0 °F /  16.7 °C 29.97 in /  1014.8 hPa Calm     92 % 0.00 in /  0 mm
02:31 64.3 °F /  17.9 °C 61.9 °F /  16.6 °C 29.97 in /  1014.8 hPa Calm     92 % 0.00 in /  0 mm
02:35 64.3 °F /  17.9 °C 61.9 °F /  16.6 °C 29.97 in /  1014.8 hPa Calm   1.2 mph /  1.9 km/h 92 % 0.00 in /  0 mm
02:45 64.1 °F /  17.8 °C 61.7 °F /  16.5 °C 29.97 in /  1014.8 hPa NNW 0.4 mph /  0.6 km/h 1.2 mph /  1.9 km/h 92 % 0.00 in /  0 mm
02:51 64.1 °F /  17.8 °C 61.7 °F /  16.5 °C 29.96 in /  1014.4 hPa Calm     92 % 0.00 in /  0 mm
02:56 64.1 °F /  17.8 °C 62.0 °F /  16.7 °C 29.97 in /  1014.8 hPa Calm   2.0 mph /  3.2 km/h 93 % 0.00 in /  0 mm
03:01 64.1 °F /  17.8 °C 62.0 °F /  16.7 °C 29.97 in /  1014.8 hPa Calm     93 % 0.00 in /  0 mm
03:06 64.1 °F /  17.8 °C 62.0 °F /  16.7 °C 29.97 in /  1014.8 hPa NNW 0.2 mph /  0.3 km/h 1.2 mph /  1.9 km/h 93 % 0.00 in /  0 mm
03:11 64.1 °F /  17.8 °C 62.0 °F /  16.7 °C 29.97 in /  1014.8 hPa Calm   1.2 mph /  1.9 km/h 93 % 0.00 in /  0 mm
03:16 64.1 °F /  17.8 °C 62.0 °F /  16.7 °C 29.97 in /  1014.8 hPa Calm     93 % 0.00 in /  0 mm
03:21 64.1 °F /  17.8 °C 62.0 °F /  16.7 °C 29.97 in /  1014.8 hPa Calm     93 % 0.00 in /  0 mm
03:26 64.1 °F /  17.8 °C 62.0 °F /  16.7 °C 29.97 in /  1014.8 hPa NNW 0.1 mph /  0.2 km/h 1.2 mph /  1.9 km/h 93 % 0.00 in /  0 mm
03:31 64.1 °F /  17.8 °C 62.3 °F /  16.8 °C 29.97 in /  1014.8 hPa Calm   1.2 mph /  1.9 km/h 94 % 0.00 in /  0 mm
03:36 64.1 °F /  17.8 °C 62.3 °F /  16.8 °C 29.97 in /  1014.8 hPa Calm     94 % 0.00 in /  0 mm
03:41 64.1 °F /  17.8 °C 62.3 °F /  16.8 °C 29.97 in /  1014.8 hPa Calm     94 % 0.00 in /  0 mm
03:46 64.0 °F /  17.8 °C 62.2 °F /  16.8 °C 29.97 in /  1014.8 hPa Calm     94 % 0.00 in /  0 mm
03:51 64.0 °F /  17.8 °C 61.9 °F /  16.6 °C 29.97 in /  1014.8 hPa NNW 0.1 mph /  0.2 km/h 1.2 mph /  1.9 km/h 93 % 0.00 in /  0 mm
03:56 63.9 °F /  17.7 °C 61.8 °F /  16.6 °C 29.97 in /  1014.8 hPa Calm     93 % 0.00 in /  0 mm
04:01 63.9 °F /  17.7 °C 61.8 °F /  16.6 °C 29.97 in /  1014.8 hPa Calm     93 % 0.00 in /  0 mm
04:06 63.8 °F /  17.7 °C 61.7 °F /  16.5 °C 29.97 in /  1014.8 hPa Calm     93 % 0.00 in /  0 mm
04:11 63.8 °F /  17.7 °C 61.7 °F /  16.5 °C 29.97 in /  1014.8 hPa Calm     93 % 0.00 in /  0 mm
04:16 63.7 °F /  17.6 °C 61.6 °F /  16.4 °C 29.97 in /  1014.8 hPa Calm     93 % 0.00 in /  0 mm
04:21 63.7 °F /  17.6 °C 61.6 °F /  16.4 °C 29.97 in /  1014.8 hPa Calm     93 % 0.00 in /  0 mm
04:27 63.6 °F /  17.6 °C 61.5 °F /  16.4 °C 29.97 in /  1014.8 hPa Calm     93 % 0.00 in /  0 mm
04:32 63.5 °F /  17.5 °C 61.4 °F /  16.3 °C 29.98 in /  1015.1 hPa Calm     93 % 0.00 in /  0 mm
04:37 63.4 °F /  17.4 °C 61.3 °F /  16.3 °C 29.98 in /  1015.1 hPa Calm   1.0 mph /  1.6 km/h 93 % 0.00 in /  0 mm
04:42 63.4 °F /  17.4 °C 61.3 °F /  16.3 °C 29.98 in /  1015.1 hPa Calm     93 % 0.00 in /  0 mm
04:47 63.3 °F /  17.4 °C 61.2 °F /  16.2 °C 29.98 in /  1015.1 hPa Calm     93 % 0.00 in /  0 mm
04:52 63.2 °F /  17.3 °C 61.1 °F /  16.2 °C 29.97 in /  1014.8 hPa Calm     93 % 0.00 in /  0 mm
04:57 63.1 °F /  17.3 °C 61.0 °F /  16.1 °C 29.98 in /  1015.1 hPa Calm     93 % 0.00 in /  0 mm
05:02 63.1 °F /  17.3 °C 61.0 °F /  16.1 °C 29.98 in /  1015.1 hPa Calm     93 % 0.00 in /  0 mm
05:07 63.0 °F /  17.2 °C 60.9 °F /  16.1 °C 29.97 in /  1014.8 hPa Calm     93 % 0.00 in /  0 mm
05:12 63.0 °F /  17.2 °C 60.9 °F /  16.1 °C 29.98 in /  1015.1 hPa Calm     93 % 0.00 in /  0 mm
05:17 62.9 °F /  17.2 °C 60.8 °F /  16 °C 29.98 in /  1015.1 hPa Calm   1.2 mph /  1.9 km/h 93 % 0.00 in /  0 mm
05:22 62.9 °F /  17.2 °C 60.8 °F /  16 °C 29.98 in /  1015.1 hPa Calm     93 % 0.00 in /  0 mm
05:27 62.8 °F /  17.1 °C 60.7 °F /  15.9 °C 29.98 in /  1015.1 hPa Calm     93 % 0.00 in /  0 mm
05:32 62.8 °F /  17.1 °C 60.7 °F /  15.9 °C 29.98 in /  1015.1 hPa Calm   1.2 mph /  1.9 km/h 93 % 0.00 in /  0 mm
05:37 62.8 °F /  17.1 °C 61.0 °F /  16.1 °C 29.98 in /  1015.1 hPa NNW 0.4 mph /  0.6 km/h 2.3 mph /  3.7 km/h 94 % 0.00 in /  0 mm
05:42 62.7 °F /  17.1 °C 60.9 °F /  16.1 °C 29.98 in /  1015.1 hPa Calm     94 % 0.00 in /  0 mm
05:47 62.7 °F /  17.1 °C 60.9 °F /  16.1 °C 29.98 in /  1015.1 hPa Calm     94 % 0.00 in /  0 mm
05:52 62.7 °F /  17.1 °C 60.9 °F /  16.1 °C 29.98 in /  1015.1 hPa Calm     94 % 0.00 in /  0 mm
05:57 62.7 °F /  17.1 °C 60.9 °F /  16.1 °C 29.98 in /  1015.1 hPa Calm     94 % 0.00 in /  0 mm
06:02 62.6 °F /  17 °C 60.8 °F /  16 °C 29.99 in /  1015.5 hPa Calm     94 % 0.00 in /  0 mm
06:07 62.6 °F /  17 °C 60.8 °F /  16 °C 29.98 in /  1015.1 hPa Calm     94 % 0.00 in /  0 mm
06:12 62.7 °F /  17.1 °C 60.9 °F /  16.1 °C 29.99 in /  1015.5 hPa Calm     94 % 0.00 in /  0 mm
06:18 62.6 °F /  17 °C 60.8 °F /  16 °C 29.99 in /  1015.5 hPa Calm     94 % 0.00 in /  0 mm
06:22 62.6 °F /  17 °C 60.8 °F /  16 °C 29.99 in /  1015.5 hPa Calm     94 % 0.00 in /  0 mm
06:28 62.6 °F /  17 °C 60.8 °F /  16 °C 29.99 in /  1015.5 hPa Calm     94 % 0.00 in /  0 mm
06:33 62.6 °F /  17 °C 60.8 °F /  16 °C 29.99 in /  1015.5 hPa Calm     94 % 0.00 in /  0 mm
06:38 62.6 °F /  17 °C 60.8 °F /  16 °C 29.99 in /  1015.5 hPa Calm   1.2 mph /  1.9 km/h 94 % 0.00 in /  0 mm
06:43 62.6 °F /  17 °C 60.8 °F /  16 °C 29.99 in /  1015.5 hPa Calm     94 % 0.00 in /  0 mm
06:48 62.6 °F /  17 °C 60.8 °F /  16 °C 30.00 in /  1015.8 hPa Calm     94 % 0.00 in /  0 mm
06:53 62.6 °F /  17 °C 61.1 °F /  16.2 °C 30.00 in /  1015.8 hPa Calm     95 % 0.00 in /  0 mm
06:58 62.6 °F /  17 °C 61.1 °F /  16.2 °C 30.00 in /  1015.8 hPa Calm     95 % 0.00 in /  0 mm
07:03 62.6 °F /  17 °C 61.1 °F /  16.2 °C 30.00 in /  1015.8 hPa Calm     95 % 0.00 in /  0 mm
07:08 62.6 °F /  17 °C 61.1 °F /  16.2 °C 30.00 in /  1015.8 hPa Calm     95 % 0.00 in /  0 mm
07:13 62.6 °F /  17 °C 61.1 °F /  16.2 °C 30.01 in /  1016.1 hPa Calm     95 % 0.00 in /  0 mm
07:18 62.7 °F /  17.1 °C 61.2 °F /  16.2 °C 30.01 in /  1016.1 hPa Calm     95 % 0.00 in /  0 mm
07:23 62.8 °F /  17.1 °C 61.3 °F /  16.3 °C 30.00 in /  1015.8 hPa Calm     95 % 0.00 in /  0 mm
07:28 62.9 °F /  17.2 °C 61.4 °F /  16.3 °C 30.01 in /  1016.1 hPa Calm     95 % 0.00 in /  0 mm
07:33 63.1 °F /  17.3 °C 61.9 °F /  16.6 °C 30.01 in /  1016.1 hPa Calm     96 % 0.00 in /  0 mm
07:38 63.4 °F /  17.4 °C 62.2 °F /  16.8 °C 30.01 in /  1016.1 hPa Calm     96 % 0.00 in /  0 mm
07:43 63.5 °F /  17.5 °C 62.3 °F /  16.8 °C 30.01 in /  1016.1 hPa Calm     96 % 0.00 in /  0 mm
07:48 63.8 °F /  17.7 °C 62.9 °F /  17.2 °C 30.01 in /  1016.1 hPa Calm     97 % 0.00 in /  0 mm
07:53 64.0 °F /  17.8 °C 63.1 °F /  17.3 °C 30.01 in /  1016.1 hPa Calm     97 % 0.00 in /  0 mm
07:58 64.3 °F /  17.9 °C 63.4 °F /  17.4 °C 30.01 in /  1016.1 hPa Calm     97 % 0.00 in /  0 mm
08:03 64.5 °F /  18.1 °C 63.6 °F /  17.6 °C 30.01 in /  1016.1 hPa Calm     97 % 0.00 in /  0 mm
08:08 64.9 °F /  18.3 °C 64.0 °F /  17.8 °C 30.01 in /  1016.1 hPa Calm   1.2 mph /  1.9 km/h 97 % 0.00 in /  0 mm
08:13 65.2 °F /  18.4 °C 64.3 °F /  17.9 °C 30.01 in /  1016.1 hPa Calm     97 % 0.00 in /  0 mm
08:18 65.5 °F /  18.6 °C 64.6 °F /  18.1 °C 30.01 in /  1016.1 hPa NNW 0.1 mph /  0.2 km/h 1.2 mph /  1.9 km/h 97 % 0.00 in /  0 mm
08:23 65.9 °F /  18.8 °C 65.0 °F /  18.3 °C 30.01 in /  1016.1 hPa NNW 0.6 mph /  1 km/h 2.3 mph /  3.7 km/h 97 % 0.00 in /  0 mm
08:28 66.1 °F /  18.9 °C 65.2 °F /  18.4 °C 30.01 in /  1016.1 hPa NNW 0.2 mph /  0.3 km/h 1.2 mph /  1.9 km/h 97 % 0.00 in /  0 mm
08:33 66.4 °F /  19.1 °C 65.5 °F /  18.6 °C 30.01 in /  1016.1 hPa NNW 0.1 mph /  0.2 km/h 1.2 mph /  1.9 km/h 97 % 0.00 in /  0 mm
08:38 66.7 °F /  19.3 °C 65.8 °F /  18.8 °C 30.01 in /  1016.1 hPa Calm   1.2 mph /  1.9 km/h 97 % 0.00 in /  0 mm
08:43 66.9 °F /  19.4 °C 66.0 °F /  18.9 °C 30.01 in /  1016.1 hPa North 2.1 mph /  3.4 km/h 4.6 mph /  7.4 km/h 97 % 0.00 in /  0 mm
08:48 67.0 °F /  19.4 °C 66.1 °F /  18.9 °C 30.01 in /  1016.1 hPa North 0.2 mph /  0.3 km/h 3.5 mph /  5.6 km/h 97 % 0.00 in /  0 mm
08:53 67.0 °F /  19.4 °C 66.1 °F /  18.9 °C 30.01 in /  1016.1 hPa North 0.3 mph /  0.5 km/h 2.3 mph /  3.7 km/h 97 % 0.00 in /  0 mm
08:58 67.2 °F /  19.6 °C 66.0 °F /  18.9 °C 30.01 in /  1016.1 hPa North 0.4 mph /  0.6 km/h 1.2 mph /  1.9 km/h 96 % 0.00 in /  0 mm
09:03 67.4 °F /  19.7 °C 66.2 °F /  19 °C 30.01 in /  1016.1 hPa NNE 0.4 mph /  0.6 km/h 2.3 mph /  3.7 km/h 96 % 0.00 in /  0 mm
09:15 68.1 °F /  20.1 °C 66.3 °F /  19.1 °C 30.01 in /  1016.1 hPa NNE 1.0 mph /  1.6 km/h 3.0 mph /  4.8 km/h 94 % 0.00 in /  0 mm
09:20 68.4 °F /  20.2 °C 66.0 °F /  18.9 °C 30.01 in /  1016.1 hPa NNE 0.6 mph /  1 km/h 2.3 mph /  3.7 km/h 92 % 0.00 in /  0 mm
09:25 68.8 °F /  20.4 °C 65.4 °F /  18.6 °C 30.01 in /  1016.1 hPa Calm   1.2 mph /  1.9 km/h 89 % 0.00 in /  0 mm
09:30 69.2 °F /  20.7 °C 65.5 °F /  18.6 °C 30.01 in /  1016.1 hPa NNE 1.0 mph /  1.6 km/h 3.5 mph /  5.6 km/h 88 % 0.00 in /  0 mm
09:35 69.5 °F /  20.8 °C 65.5 °F /  18.6 °C 30.01 in /  1016.1 hPa NNE 0.2 mph /  0.3 km/h 1.2 mph /  1.9 km/h 87 % 0.00 in /  0 mm
09:40 69.8 °F /  21 °C 65.4 °F /  18.6 °C 30.00 in /  1015.8 hPa Calm     86 % 0.00 in /  0 mm
09:45 70.1 °F /  21.2 °C 65.7 °F /  18.7 °C 30.00 in /  1015.8 hPa Calm     86 % 0.00 in /  0 mm
09:50 70.4 °F /  21.3 °C 65.7 °F /  18.7 °C 30.00 in /  1015.8 hPa Calm   1.2 mph /  1.9 km/h 85 % 0.00 in /  0 mm
09:55 70.7 °F /  21.5 °C 65.6 °F /  18.7 °C 30.00 in /  1015.8 hPa NNE 1.5 mph /  2.4 km/h 3.5 mph /  5.6 km/h 84 % 0.00 in /  0 mm
10:00 71.0 °F /  21.7 °C 65.6 °F /  18.7 °C 30.00 in /  1015.8 hPa NE 0.1 mph /  0.2 km/h 1.0 mph /  1.6 km/h 83 % 0.00 in /  0 mm
10:05 71.3 °F /  21.8 °C 65.9 °F /  18.8 °C 30.00 in /  1015.8 hPa North 0.1 mph /  0.2 km/h 3.5 mph /  5.6 km/h 83 % 0.00 in /  0 mm
10:10 71.6 °F /  22 °C 65.8 °F /  18.8 °C 30.00 in /  1015.8 hPa Calm   2.3 mph /  3.7 km/h 82 % 0.00 in /  0 mm
10:15 71.9 °F /  22.2 °C 65.8 °F /  18.8 °C 30.01 in /  1016.1 hPa NNW 0.7 mph /  1.1 km/h 2.3 mph /  3.7 km/h 81 % 0.00 in /  0 mm
10:20 72.3 °F /  22.4 °C 66.8 °F /  19.3 °C 30.00 in /  1015.8 hPa NNW 0.1 mph /  0.2 km/h 1.2 mph /  1.9 km/h 83 % 0.00 in /  0 mm
10:26 72.7 °F /  22.6 °C 67.2 °F /  19.6 °C 30.01 in /  1016.1 hPa Calm   2.0 mph /  3.2 km/h 83 % 0.00 in /  0 mm
10:31 73.1 °F /  22.8 °C 66.9 °F /  19.4 °C 30.01 in /  1016.1 hPa Calm   3.0 mph /  4.8 km/h 81 % 0.00 in /  0 mm
10:36 73.4 °F /  23 °C 66.4 °F /  19.1 °C 30.01 in /  1016.1 hPa Calm   3.0 mph /  4.8 km/h 79 % 0.00 in /  0 mm
10:41 73.7 °F /  23.2 °C 66.0 °F /  18.9 °C 30.00 in /  1015.8 hPa Calm   2.0 mph /  3.2 km/h 77 % 0.00 in /  0 mm
10:46 74.0 °F /  23.3 °C 66.3 °F /  19.1 °C 30.00 in /  1015.8 hPa NNW 1.0 mph /  1.6 km/h 3.0 mph /  4.8 km/h 77 % 0.00 in /  0 mm
10:51 74.3 °F /  23.5 °C 66.6 °F /  19.2 °C 30.00 in /  1015.8 hPa NNW 1.0 mph /  1.6 km/h 3.0 mph /  4.8 km/h 77 % 0.00 in /  0 mm
10:56 74.5 °F /  23.6 °C 66.5 °F /  19.2 °C 30.00 in /  1015.8 hPa North 2.0 mph /  3.2 km/h 5.0 mph /  8 km/h 76 % 0.00 in /  0 mm
11:01 74.8 °F /  23.8 °C 66.7 °F /  19.3 °C 30.00 in /  1015.8 hPa NNE 0.1 mph /  0.2 km/h 3.5 mph /  5.6 km/h 76 % 0.00 in /  0 mm
11:06 75.2 °F /  24 °C 67.1 °F /  19.5 °C 30.00 in /  1015.8 hPa NW 0.3 mph /  0.5 km/h 1.2 mph /  1.9 km/h 76 % 0.00 in /  0 mm
11:11 75.6 °F /  24.2 °C 67.9 °F /  19.9 °C 30.00 in /  1015.8 hPa NE 0.6 mph /  1 km/h 2.3 mph /  3.7 km/h 77 % 0.00 in /  0 mm
11:16 76.4 °F /  24.7 °C 69.0 °F /  20.6 °C 30.00 in /  1015.8 hPa NE 0.2 mph /  0.3 km/h 1.2 mph /  1.9 km/h 78 % 0.00 in /  0 mm
11:21 77.5 °F /  25.3 °C 68.9 °F /  20.5 °C 30.00 in /  1015.8 hPa NNE 0.9 mph /  1.4 km/h 3.0 mph /  4.8 km/h 75 % 0.00 in /  0 mm
11:26 78.5 °F /  25.8 °C 69.1 °F /  20.6 °C 30.00 in /  1015.8 hPa North 2.1 mph /  3.4 km/h 3.5 mph /  5.6 km/h 73 % 0.00 in /  0 mm
11:36 81.3 °F /  27.4 °C 70.6 °F /  21.4 °C 30.00 in /  1015.8 hPa NW 0.4 mph /  0.6 km/h 1.2 mph /  1.9 km/h 70 % 0.00 in /  0 mm
11:41 82.5 °F /  28.1 °C 70.9 °F /  21.6 °C 30.00 in /  1015.8 hPa NW 0.5 mph /  0.8 km/h 2.3 mph /  3.7 km/h 68 % 0.00 in /  0 mm
11:46 83.7 °F /  28.7 °C 71.1 °F /  21.7 °C 30.00 in /  1015.8 hPa NNW 0.6 mph /  1 km/h 3.0 mph /  4.8 km/h 66 % 0.00 in /  0 mm
11:51 85.0 °F /  29.4 °C 71.0 °F /  21.7 °C 30.00 in /  1015.8 hPa NNE 1.6 mph /  2.6 km/h 3.5 mph /  5.6 km/h 63 % 0.00 in /  0 mm
11:56 85.9 °F /  29.9 °C 70.9 °F /  21.6 °C 30.00 in /  1015.8 hPa NNW 1.8 mph /  2.9 km/h 3.5 mph /  5.6 km/h 61 % 0.00 in /  0 mm
12:01 86.7 °F /  30.4 °C 70.2 °F /  21.2 °C 30.00 in /  1015.8 hPa North 1.0 mph /  1.6 km/h 3.0 mph /  4.8 km/h 58 % 0.00 in /  0 mm
12:06 87.2 °F /  30.7 °C 69.1 °F /  20.6 °C 30.00 in /  1015.8 hPa NE 0.6 mph /  1 km/h 3.5 mph /  5.6 km/h 55 % 0.00 in /  0 mm
12:11 87.8 °F /  31 °C 71.2 °F /  21.8 °C 30.00 in /  1015.8 hPa NE 0.5 mph /  0.8 km/h 1.0 mph /  1.6 km/h 58 % 0.00 in /  0 mm
12:17 88.1 °F /  31.2 °C 69.9 °F /  21.1 °C 30.00 in /  1015.8 hPa Calm   2.3 mph /  3.7 km/h 55 % 0.00 in /  0 mm
12:22 88.5 °F /  31.4 °C 70.8 °F /  21.6 °C 30.00 in /  1015.8 hPa NNE 1.6 mph /  2.6 km/h 3.5 mph /  5.6 km/h 56 % 0.00 in /  0 mm
12:27 88.7 °F /  31.5 °C 70.5 °F /  21.4 °C 30.00 in /  1015.8 hPa ENE 0.1 mph /  0.2 km/h 1.2 mph /  1.9 km/h 55 % 0.00 in /  0 mm
12:32 88.8 °F /  31.6 °C 70.0 °F /  21.1 °C 29.99 in /  1015.5 hPa North 1.8 mph /  2.9 km/h 1.8 mph /  2.9 km/h 54 % 0.00 in /  0 mm
12:37 89.0 °F /  31.7 °C 69.1 °F /  20.6 °C 29.99 in /  1015.5 hPa North 0.4 mph /  0.6 km/h 2.0 mph /  3.2 km/h 52 % 0.00 in /  0 mm
12:42 89.2 °F /  31.8 °C 70.4 °F /  21.3 °C 29.99 in /  1015.5 hPa North 0.2 mph /  0.3 km/h 1.2 mph /  1.9 km/h 54 % 0.00 in /  0 mm
12:47 89.3 °F /  31.8 °C 70.5 °F /  21.4 °C 29.99 in /  1015.5 hPa NE 0.1 mph /  0.2 km/h 3.5 mph /  5.6 km/h 54 % 0.00 in /  0 mm
12:52 89.4 °F /  31.9 °C 70.0 °F /  21.1 °C 29.99 in /  1015.5 hPa Calm     53 % 0.00 in /  0 mm
12:57 89.7 °F /  32.1 °C 69.7 °F /  20.9 °C 29.99 in /  1015.5 hPa ENE 0.4 mph /  0.6 km/h 1.2 mph /  1.9 km/h 52 % 0.00 in /  0 mm
13:02 89.8 °F /  32.1 °C 69.8 °F /  21 °C 29.99 in /  1015.5 hPa NE 0.6 mph /  1 km/h 2.0 mph /  3.2 km/h 52 % 0.00 in /  0 mm
13:07 90.1 °F /  32.3 °C 70.1 °F /  21.2 °C 29.99 in /  1015.5 hPa ENE 1.1 mph /  1.8 km/h 2.0 mph /  3.2 km/h 52 % 0.00 in /  0 mm
13:12 90.3 °F /  32.4 °C 69.1 °F /  20.6 °C 29.99 in /  1015.5 hPa NE 3.2 mph /  5.1 km/h 4.0 mph /  6.4 km/h 50 % 0.00 in /  0 mm
13:17 90.1 °F /  32.3 °C 69.5 °F /  20.8 °C 29.98 in /  1015.1 hPa Calm   1.2 mph /  1.9 km/h 51 % 0.00 in /  0 mm
13:22 90.1 °F /  32.3 °C 69.5 °F /  20.8 °C 29.98 in /  1015.1 hPa Calm   1.2 mph /  1.9 km/h 51 % 0.00 in /  0 mm
13:27 90.1 °F /  32.3 °C 67.8 °F /  19.9 °C 29.98 in /  1015.1 hPa NE 0.1 mph /  0.2 km/h 1.2 mph /  1.9 km/h 48 % 0.00 in /  0 mm
13:32 90.1 °F /  32.3 °C 68.4 °F /  20.2 °C 29.98 in /  1015.1 hPa NE 0.2 mph /  0.3 km/h 2.3 mph /  3.7 km/h 49 % 0.00 in /  0 mm
13:37 90.0 °F /  32.2 °C 68.9 °F /  20.5 °C 29.98 in /  1015.1 hPa Calm   1.2 mph /  1.9 km/h 50 % 0.00 in /  0 mm
13:42 90.0 °F /  32.2 °C 69.4 °F /  20.8 °C 29.98 in /  1015.1 hPa NE 1.8 mph /  2.9 km/h 3.5 mph /  5.6 km/h 51 % 0.00 in /  0 mm
13:47 89.9 °F /  32.2 °C 69.9 °F /  21.1 °C 29.98 in /  1015.1 hPa NE 0.6 mph /  1 km/h 2.3 mph /  3.7 km/h 52 % 0.00 in /  0 mm
13:52 90.0 °F /  32.2 °C 70.0 °F /  21.1 °C 29.98 in /  1015.1 hPa NNW 0.2 mph /  0.3 km/h 1.2 mph /  1.9 km/h 52 % 0.00 in /  0 mm
13:57 90.0 °F /  32.2 °C 68.3 °F /  20.2 °C 29.98 in /  1015.1 hPa Calm     49 % 0.00 in /  0 mm
14:02 90.1 °F /  32.3 °C 69.5 °F /  20.8 °C 29.97 in /  1014.8 hPa NNW 0.1 mph /  0.2 km/h 1.2 mph /  1.9 km/h 51 % 0.00 in /  0 mm
14:07 90.1 °F /  32.3 °C 70.1 °F /  21.2 °C 29.97 in /  1014.8 hPa Calm   1.2 mph /  1.9 km/h 52 % 0.00 in /  0 mm
14:12 90.1 °F /  32.3 °C 69.0 °F /  20.6 °C 29.97 in /  1014.8 hPa Calm   1.2 mph /  1.9 km/h 50 % 0.00 in /  0 mm
14:17 90.2 °F /  32.3 °C 70.8 °F /  21.6 °C 29.97 in /  1014.8 hPa Calm   1.2 mph /  1.9 km/h 53 % 0.00 in /  0 mm
14:22 90.4 °F /  32.4 °C 70.4 °F /  21.3 °C 29.97 in /  1014.8 hPa SSE 2.4 mph /  3.9 km/h 4.6 mph /  7.4 km/h 52 % 0.00 in /  0 mm
14:27 90.4 °F /  32.4 °C 68.0 °F /  20 °C 29.97 in /  1014.8 hPa SE 1.8 mph /  2.9 km/h 3.5 mph /  5.6 km/h 48 % 0.00 in /  0 mm
14:32 90.5 °F /  32.5 °C 69.9 °F /  21.1 °C 29.97 in /  1014.8 hPa Calm   1.0 mph /  1.6 km/h 51 % 0.00 in /  0 mm
14:37 90.6 °F /  32.6 °C 68.8 °F /  20.4 °C 29.97 in /  1014.8 hPa Calm   1.2 mph /  1.9 km/h 49 % 0.00 in /  0 mm
14:43 90.6 °F /  32.6 °C 68.2 °F /  20.1 °C 29.97 in /  1014.8 hPa SE 0.1 mph /  0.2 km/h   48 % 0.00 in /  0 mm
14:48 90.7 °F /  32.6 °C 67.7 °F /  19.8 °C 29.97 in /  1014.8 hPa Calm     47 % 0.00 in /  0 mm
14:53 90.8 °F /  32.7 °C 70.2 °F /  21.2 °C 29.96 in /  1014.4 hPa Calm   1.2 mph /  1.9 km/h 51 % 0.00 in /  0 mm
14:58 90.8 °F /  32.7 °C 69.6 °F /  20.9 °C 29.96 in /  1014.4 hPa Calm   1.2 mph /  1.9 km/h 50 % 0.00 in /  0 mm
15:03 90.9 °F /  32.7 °C 69.1 °F /  20.6 °C 29.96 in /  1014.4 hPa SE 0.1 mph /  0.2 km/h 1.2 mph /  1.9 km/h 49 % 0.00 in /  0 mm
15:08 90.9 °F /  32.7 °C 70.3 °F /  21.3 °C 29.96 in /  1014.4 hPa Calm   1.2 mph /  1.9 km/h 51 % 0.00 in /  0 mm
15:18 90.9 °F /  32.7 °C 69.1 °F /  20.6 °C 29.96 in /  1014.4 hPa NE 0.9 mph /  1.4 km/h 2.3 mph /  3.7 km/h 49 % 0.00 in /  0 mm
15:23 90.8 °F /  32.7 °C 69.0 °F /  20.6 °C 29.96 in /  1014.4 hPa NE 0.4 mph /  0.6 km/h 1.2 mph /  1.9 km/h 49 % 0.00 in /  0 mm
15:28 90.5 °F /  32.5 °C 69.3 °F /  20.7 °C 29.95 in /  1014.1 hPa NE 1.5 mph /  2.4 km/h 3.5 mph /  5.6 km/h 50 % 0.00 in /  0 mm
15:33 90.1 °F /  32.3 °C 68.4 °F /  20.2 °C 29.95 in /  1014.1 hPa ENE 1.0 mph /  1.6 km/h 2.3 mph /  3.7 km/h 49 % 0.00 in /  0 mm
15:38 90.0 °F /  32.2 °C 70.0 °F /  21.1 °C 29.95 in /  1014.1 hPa Calm     52 % 0.00 in /  0 mm
15:43 90.0 °F /  32.2 °C 69.4 °F /  20.8 °C 29.95 in /  1014.1 hPa Calm   1.2 mph /  1.9 km/h 51 % 0.00 in /  0 mm
15:48 90.0 °F /  32.2 °C 70.0 °F /  21.1 °C 29.95 in /  1014.1 hPa Calm   1.2 mph /  1.9 km/h 52 % 0.00 in /  0 mm
15:53 90.0 °F /  32.2 °C 70.0 °F /  21.1 °C 29.95 in /  1014.1 hPa ESE 0.2 mph /  0.3 km/h 1.2 mph /  1.9 km/h 52 % 0.00 in /  0 mm
15:58 90.1 °F /  32.3 °C 69.0 °F /  20.6 °C 29.94 in /  1013.8 hPa Calm     50 % 0.00 in /  0 mm
16:03 90.0 °F /  32.2 °C 69.4 °F /  20.8 °C 29.94 in /  1013.8 hPa Calm     51 % 0.00 in /  0 mm
16:08 89.8 °F /  32.1 °C 68.7 °F /  20.4 °C 29.94 in /  1013.8 hPa Calm     50 % 0.00 in /  0 mm
16:13 89.6 °F /  32 °C 69.6 °F /  20.9 °C 29.94 in /  1013.8 hPa Calm   1.2 mph /  1.9 km/h 52 % 0.00 in /  0 mm
16:19 89.7 °F /  32.1 °C 69.7 °F /  20.9 °C 29.94 in /  1013.8 hPa Calm     52 % 0.00 in /  0 mm
16:23 89.5 °F /  31.9 °C 69.5 °F /  20.8 °C 29.94 in /  1013.8 hPa Calm   1.2 mph /  1.9 km/h 52 % 0.00 in /  0 mm
16:29 89.1 °F /  31.7 °C 69.7 °F /  20.9 °C 29.94 in /  1013.8 hPa ENE 0.5 mph /  0.8 km/h 2.3 mph /  3.7 km/h 53 % 0.00 in /  0 mm
16:34 88.9 °F /  31.6 °C 69.6 °F /  20.9 °C 29.94 in /  1013.8 hPa ENE 0.1 mph /  0.2 km/h 1.2 mph /  1.9 km/h 53 % 0.00 in /  0 mm
16:39 88.6 °F /  31.4 °C 70.4 °F /  21.3 °C 29.94 in /  1013.8 hPa Calm     55 % 0.00 in /  0 mm
16:44 88.4 °F /  31.3 °C 70.7 °F /  21.5 °C 29.94 in /  1013.8 hPa Calm     56 % 0.00 in /  0 mm
16:49 88.1 °F /  31.2 °C 69.9 °F /  21.1 °C 29.94 in /  1013.8 hPa ENE 0.4 mph /  0.6 km/h 2.3 mph /  3.7 km/h 55 % 0.00 in /  0 mm
16:54 87.9 °F /  31.1 °C 70.2 °F /  21.2 °C 29.94 in /  1013.8 hPa Calm     56 % 0.00 in /  0 mm
16:59 87.8 °F /  31 °C 68.0 °F /  20 °C 29.94 in /  1013.8 hPa SSE 3.9 mph /  6.3 km/h 5.8 mph /  9.3 km/h 52 % 0.00 in /  0 mm
17:04 87.4 °F /  30.8 °C 67.6 °F /  19.8 °C 29.94 in /  1013.8 hPa SE 3.6 mph /  5.8 km/h 5.8 mph /  9.3 km/h 52 % 0.00 in /  0 mm
17:09 87.0 °F /  30.6 °C 67.2 °F /  19.6 °C 29.93 in /  1013.4 hPa SE 1.3 mph /  2.1 km/h 3.5 mph /  5.6 km/h 52 % 0.00 in /  0 mm
17:14 86.5 °F /  30.3 °C 67.3 °F /  19.6 °C 29.93 in /  1013.4 hPa SE 1.2 mph /  1.9 km/h 3.5 mph /  5.6 km/h 53 % 0.00 in /  0 mm
17:19 86.2 °F /  30.1 °C 67.6 °F /  19.8 °C 29.93 in /  1013.4 hPa SE 1.2 mph /  1.9 km/h 2.3 mph /  3.7 km/h 54 % 0.00 in /  0 mm
17:24 86.0 °F /  30 °C 67.4 °F /  19.7 °C 29.93 in /  1013.4 hPa SE 0.2 mph /  0.3 km/h 1.2 mph /  1.9 km/h 54 % 0.00 in /  0 mm
17:29 85.7 °F /  29.8 °C 67.1 °F /  19.5 °C 29.93 in /  1013.4 hPa SE 1.9 mph /  3.1 km/h 3.5 mph /  5.6 km/h 54 % 0.00 in /  0 mm
17:35 85.3 °F /  29.6 °C 67.3 °F /  19.6 °C 29.93 in /  1013.4 hPa Calm   3.5 mph /  5.6 km/h 55 % 0.00 in /  0 mm
17:45 84.7 °F /  29.3 °C 67.3 °F /  19.6 °C 29.94 in /  1013.8 hPa Calm     56 % 0.00 in /  0 mm
17:50 84.5 °F /  29.2 °C 67.6 °F /  19.8 °C 29.94 in /  1013.8 hPa Calm     57 % 0.00 in /  0 mm
17:55 84.2 °F /  29 °C 67.3 °F /  19.6 °C 29.94 in /  1013.8 hPa Calm     57 % 0.00 in /  0 mm
18:00 84.0 °F /  28.9 °C 67.1 °F /  19.5 °C 29.94 in /  1013.8 hPa Calm   1.2 mph /  1.9 km/h 57 % 0.00 in /  0 mm
18:05 83.8 °F /  28.8 °C 67.9 °F /  19.9 °C 29.94 in /  1013.8 hPa Calm     59 % 0.00 in /  0 mm
18:10 83.6 °F /  28.7 °C 67.3 °F /  19.6 °C 29.94 in /  1013.8 hPa Calm     58 % 0.00 in /  0 mm
18:15 83.4 °F /  28.6 °C 67.6 °F /  19.8 °C 29.94 in /  1013.8 hPa Calm   1.0 mph /  1.6 km/h 59 % 0.00 in /  0 mm
18:20 83.2 °F /  28.4 °C 67.4 °F /  19.7 °C 29.94 in /  1013.8 hPa Calm     59 % 0.00 in /  0 mm
18:25 82.8 °F /  28.2 °C 67.5 °F /  19.7 °C 29.94 in /  1013.8 hPa Calm   1.2 mph /  1.9 km/h 60 % 0.00 in /  0 mm
18:30 82.5 °F /  28.1 °C 67.2 °F /  19.6 °C 29.94 in /  1013.8 hPa Calm     60 % 0.00 in /  0 mm
18:35 82.2 °F /  27.9 °C 66.9 °F /  19.4 °C 29.94 in /  1013.8 hPa Calm     60 % 0.00 in /  0 mm
18:40 81.8 °F /  27.7 °C 66.6 °F /  19.2 °C 29.94 in /  1013.8 hPa Calm     60 % 0.00 in /  0 mm
18:45 81.5 °F /  27.5 °C 66.3 °F /  19.1 °C 29.94 in /  1013.8 hPa Calm     60 % 0.00 in /  0 mm
18:50 81.2 °F /  27.3 °C 66.5 °F /  19.2 °C 29.94 in /  1013.8 hPa Calm   1.2 mph /  1.9 km/h 61 % 0.00 in /  0 mm
18:55 80.8 °F /  27.1 °C 66.1 °F /  18.9 °C 29.94 in /  1013.8 hPa Calm     61 % 0.00 in /  0 mm
19:00 80.5 °F /  26.9 °C 66.3 °F /  19.1 °C 29.94 in /  1013.8 hPa Calm     62 % 0.00 in /  0 mm
19:05 80.1 °F /  26.7 °C 65.9 °F /  18.8 °C 29.94 in /  1013.8 hPa Calm     62 % 0.00 in /  0 mm
19:10 79.8 °F /  26.6 °C 66.1 °F /  18.9 °C 29.94 in /  1013.8 hPa Calm     63 % 0.00 in /  0 mm
19:15 79.5 °F /  26.4 °C 65.8 °F /  18.8 °C 29.94 in /  1013.8 hPa Calm   1.2 mph /  1.9 km/h 63 % 0.00 in /  0 mm
19:20 79.2 °F /  26.2 °C 66.0 °F /  18.9 °C 29.94 in /  1013.8 hPa SE 0.1 mph /  0.2 km/h   64 % 0.00 in /  0 mm
19:25 78.9 °F /  26.1 °C 66.1 °F /  18.9 °C 29.94 in /  1013.8 hPa Calm   1.2 mph /  1.9 km/h 65 % 0.00 in /  0 mm
19:30 78.6 °F /  25.9 °C 65.8 °F /  18.8 °C 29.95 in /  1014.1 hPa SE 0.1 mph /  0.2 km/h 1.2 mph /  1.9 km/h 65 % 0.00 in /  0 mm
19:36 78.3 °F /  25.7 °C 66.0 °F /  18.9 °C 29.95 in /  1014.1 hPa Calm   1.2 mph /  1.9 km/h 66 % 0.00 in /  0 mm
19:41 78.0 °F /  25.6 °C 65.7 °F /  18.7 °C 29.95 in /  1014.1 hPa Calm     66 % 0.00 in /  0 mm
19:46 77.7 °F /  25.4 °C 65.5 °F /  18.6 °C 29.96 in /  1014.4 hPa Calm   1.0 mph /  1.6 km/h 66 % 0.00 in /  0 mm
19:50 77.5 °F /  25.3 °C 65.7 °F /  18.7 °C 29.95 in /  1014.1 hPa Calm   1.2 mph /  1.9 km/h 67 % 0.00 in /  0 mm
19:56 77.2 °F /  25.1 °C 65.4 °F /  18.6 °C 29.95 in /  1014.1 hPa Calm   1.0 mph /  1.6 km/h 67 % 0.00 in /  0 mm
20:01 76.9 °F /  24.9 °C 65.1 °F /  18.4 °C 29.96 in /  1014.4 hPa SE 0.1 mph /  0.2 km/h 1.2 mph /  1.9 km/h 67 % 0.00 in /  0 mm
20:06 76.6 °F /  24.8 °C 64.8 °F /  18.2 °C 29.95 in /  1014.1 hPa SE 0.2 mph /  0.3 km/h 1.2 mph /  1.9 km/h 67 % 0.00 in /  0 mm
20:16 76.1 °F /  24.5 °C 64.8 °F /  18.2 °C 29.95 in /  1014.1 hPa Calm   1.2 mph /  1.9 km/h 68 % 0.00 in /  0 mm
20:19 76.0 °F /  24.4 °C 65.1 °F /  18.4 °C 29.96 in /  1014.4 hPa Calm   1.2 mph /  1.9 km/h 69 % 0.00 in /  0 mm
20:24 75.8 °F /  24.3 °C 64.9 °F /  18.3 °C 29.96 in /  1014.4 hPa Calm   1.2 mph /  1.9 km/h 69 % 0.00 in /  0 mm
20:29 75.6 °F /  24.2 °C 65.1 °F /  18.4 °C 29.95 in /  1014.1 hPa SE 0.4 mph /  0.6 km/h 1.2 mph /  1.9 km/h 70 % 0.00 in /  0 mm
20:34 75.4 °F /  24.1 °C 64.9 °F /  18.3 °C 29.95 in /  1014.1 hPa SE 0.6 mph /  1 km/h 1.2 mph /  1.9 km/h 70 % 0.00 in /  0 mm
20:39 75.2 °F /  24 °C 64.7 °F /  18.2 °C 29.96 in /  1014.4 hPa SE 0.2 mph /  0.3 km/h 1.2 mph /  1.9 km/h 70 % 0.00 in /  0 mm
20:44 74.9 °F /  23.8 °C 64.5 °F /  18.1 °C 29.96 in /  1014.4 hPa SE 0.5 mph /  0.8 km/h 1.2 mph /  1.9 km/h 70 % 0.00 in /  0 mm
20:49 74.7 °F /  23.7 °C 64.3 °F /  17.9 °C 29.96 in /  1014.4 hPa SE 0.8 mph /  1.3 km/h 1.2 mph /  1.9 km/h 70 % 0.00 in /  0 mm
20:54 74.5 °F /  23.6 °C 64.1 °F /  17.8 °C 29.96 in /  1014.4 hPa SE 0.3 mph /  0.5 km/h 1.2 mph /  1.9 km/h 70 % 0.00 in /  0 mm
20:59 74.3 °F /  23.5 °C 63.9 °F /  17.7 °C 29.96 in /  1014.4 hPa SE 0.3 mph /  0.5 km/h 2.3 mph /  3.7 km/h 70 % 0.00 in /  0 mm
21:04 74.2 °F /  23.4 °C 63.8 °F /  17.7 °C 29.97 in /  1014.8 hPa SE 0.1 mph /  0.2 km/h 1.2 mph /  1.9 km/h 70 % 0.00 in /  0 mm
21:09 74.0 °F /  23.3 °C 63.6 °F /  17.6 °C 29.97 in /  1014.8 hPa SE 0.5 mph /  0.8 km/h 2.3 mph /  3.7 km/h 70 % 0.00 in /  0 mm
21:14 73.8 °F /  23.2 °C 63.0 °F /  17.2 °C 29.97 in /  1014.8 hPa SW 0.3 mph /  0.5 km/h 2.3 mph /  3.7 km/h 69 % 0.00 in /  0 mm
21:19 73.7 °F /  23.2 °C 62.9 °F /  17.2 °C 29.97 in /  1014.8 hPa SW 1.5 mph /  2.4 km/h 4.0 mph /  6.4 km/h 69 % 0.00 in /  0 mm
21:23 73.6 °F /  23.1 °C 62.8 °F /  17.1 °C 29.97 in /  1014.8 hPa SW 1.2 mph /  1.9 km/h 2.3 mph /  3.7 km/h 69 % 0.00 in /  0 mm
21:28 73.4 °F /  23 °C 62.6 °F /  17 °C 29.97 in /  1014.8 hPa SSW 0.3 mph /  0.5 km/h 3.0 mph /  4.8 km/h 69 % 0.00 in /  0 mm
21:33 73.3 °F /  22.9 °C 62.5 °F /  16.9 °C 29.98 in /  1015.1 hPa SW 0.7 mph /  1.1 km/h 2.3 mph /  3.7 km/h 69 % 0.00 in /  0 mm
21:38 73.2 °F /  22.9 °C 62.4 °F /  16.9 °C 29.98 in /  1015.1 hPa WSW 1.4 mph /  2.3 km/h 3.5 mph /  5.6 km/h 69 % 0.00 in /  0 mm
21:43 73.1 °F /  22.8 °C 62.3 °F /  16.8 °C 29.98 in /  1015.1 hPa Calm   1.2 mph /  1.9 km/h 69 % 0.00 in /  0 mm
21:53 73.0 °F /  22.8 °C 62.6 °F /  17 °C 29.98 in /  1015.1 hPa Calm     70 % 0.00 in /  0 mm
21:59 73.0 °F /  22.8 °C 62.2 °F /  16.8 °C 29.99 in /  1015.5 hPa Calm   1.2 mph /  1.9 km/h 69 % 0.00 in /  0 mm
22:04 72.9 °F /  22.7 °C 63.3 °F /  17.4 °C 29.99 in /  1015.5 hPa Calm     72 % 0.00 in /  0 mm
22:09 72.7 °F /  22.6 °C 63.1 °F /  17.3 °C 29.99 in /  1015.5 hPa Calm     72 % 0.00 in /  0 mm
22:14 72.6 °F /  22.6 °C 63.1 °F /  17.3 °C 29.99 in /  1015.5 hPa Calm   1.2 mph /  1.9 km/h 72 % 0.00 in /  0 mm
22:19 72.4 °F /  22.4 °C 63.3 °F /  17.4 °C 29.98 in /  1015.1 hPa Calm     73 % 0.00 in /  0 mm
22:24 72.2 °F /  22.3 °C 63.1 °F /  17.3 °C 29.98 in /  1015.1 hPa Calm     73 % 0.00 in /  0 mm
22:29 72.0 °F /  22.2 °C 62.9 °F /  17.2 °C 29.98 in /  1015.1 hPa Calm     73 % 0.00 in /  0 mm
22:34 71.8 °F /  22.1 °C 63.1 °F /  17.3 °C 29.98 in /  1015.1 hPa Calm     74 % 0.00 in /  0 mm
22:39 71.7 °F /  22.1 °C 63.0 °F /  17.2 °C 29.98 in /  1015.1 hPa Calm     74 % 0.00 in /  0 mm
22:44 71.4 °F /  21.9 °C 62.7 °F /  17.1 °C 29.97 in /  1014.8 hPa Calm     74 % 0.00 in /  0 mm
22:49 71.2 °F /  21.8 °C 62.5 °F /  16.9 °C 29.97 in /  1014.8 hPa Calm     74 % 0.00 in /  0 mm
22:54 71.1 °F /  21.7 °C 62.4 °F /  16.9 °C 29.97 in /  1014.8 hPa Calm     74 % 0.00 in /  0 mm
22:59 70.9 °F /  21.6 °C 63.0 °F /  17.2 °C 29.97 in /  1014.8 hPa Calm     76 % 0.00 in /  0 mm
23:04 70.7 °F /  21.5 °C 62.8 °F /  17.1 °C 29.97 in /  1014.8 hPa Calm     76 % 0.00 in /  0 mm
23:09 70.4 °F /  21.3 °C 62.8 °F /  17.1 °C 29.97 in /  1014.8 hPa Calm     77 % 0.00 in /  0 mm
23:16 70.2 °F /  21.2 °C 63.0 °F /  17.2 °C 29.97 in /  1014.8 hPa Calm     78 % 0.00 in /  0 mm
23:21 70.0 °F /  21.1 °C 62.8 °F /  17.1 °C 29.97 in /  1014.8 hPa Calm     78 % 0.00 in /  0 mm
23:22 70.0 °F /  21.1 °C 62.8 °F /  17.1 °C 29.96 in /  1014.4 hPa Calm     78 % 0.00 in /  0 mm
23:25 69.9 °F /  21.1 °C 63.1 °F /  17.3 °C 29.97 in /  1014.8 hPa Calm     79 % 0.00 in /  0 mm
23:29 69.7 °F /  20.9 °C 62.5 °F /  16.9 °C 29.97 in /  1014.8 hPa Calm     78 % 0.00 in /  0 mm
23:34 69.6 °F /  20.9 °C 62.8 °F /  17.1 °C 29.96 in /  1014.4 hPa Calm     79 % 0.00 in /  0 mm
23:40 69.4 °F /  20.8 °C 63.0 °F /  17.2 °C 29.96 in /  1014.4 hPa Calm     80 % 0.00 in /  0 mm
23:44 69.2 °F /  20.7 °C 62.4 °F /  16.9 °C 29.96 in /  1014.4 hPa Calm     79 % 0.00 in /  0 mm
23:50 69.1 °F /  20.6 °C 62.7 °F /  17.1 °C 29.96 in /  1014.4 hPa Calm     80 % 0.00 in /  0 mm
23:55 68.9 °F /  20.5 °C 62.8 °F /  17.1 °C 29.96 in /  1014.4 hPa Calm     81 % 0.00 in /  0 mm
Crab Meadow Weather
Compliments of Weather Underground - 3 mb

Script developed by  Jim McMurry - jmcmurry@mwt.net Adapted for the template by  Wim van der Kuil - Leuven-Template.eu

Recycling: The U.S. is the #1 trash-producing country in the world at 1,609 pounds per person per year. This means that 5% of the world's people generate 40% of the world's waste.